Regional Weather Roundup
Issued by NWS

Home | Current Version | Previous Version | Graphics & Text | Print | Product List | Glossary On
Versions: 1 2 3 4 5 6 7 8 9 10 11 12 13 14 15 16 17 18 19 20 21 22 23 24 25 26 27 28 29 30 31 32 33 34 35 36 37 38 39 40 41 42 43 44 45 46 47 48 49 50
000
ASUS43 KDMX 251906
RWRIA

WEATHER ROUNDUP FOR IOWA
NATIONAL WEATHER SERVICE DES MOINES IA
200 PM CDT FRI MAY 25 2018

NOTE: "FAIR" INDICATES FEW OR NO CLOUDS BELOW 12,000 FEET WITH NO
SIGNIFICANT WEATHER AND/OR OBSTRUCTIONS TO VISIBILITY.

* - THESE STATIONS ARE NOT NWS STATIONS...THUS NOT UNDER NWS
QUALITY CONTROL.  THEY ALSO DO NOT REPORT WEATHER SUCH
AS PRECIPITATION OR FOG.

IAZ001>003-012>014-020>022-031>034-043>046-252000-
   NORTHWEST IOWA

CITY           SKY/WX    TMP DP  RH WIND       PRES   REMARKS
CARROLL *      SUNNY     90  63  40 VRB3G15   29.80  HX  90
CHEROKEE *     MOSUNNY   88  64  43 NW3       29.79F HX  89
DENISON *      SUNNY     88  66  48 MISG      29.82  HX  90
LE MARS *      SUNNY     91  55  29 VRB5      29.78  HX  89
ORANGE CITY *  SUNNY     90  52  27 W3        29.80  HX  87
SHELDON *      SUNNY     90  50  25 N10       29.78  HX  87
SIOUX CITY     SUNNY     89  61  38 VRB5      29.79F HX  89
SPENCER        SUNNY     90  60  36 NE6       29.79F HX  89
STORM LAKE *     N/A     88  57  35 VRB6G13   29.81  HX  86
$$

IAZ055>058-069>071-079>083-090>094-252000-
   SOUTHWEST IOWA

CITY           SKY/WX    TMP DP  RH WIND       PRES   REMARKS
ATLANTIC *     SUNNY     88  64  45 SW9G18    29.81F HX  89
AUDUBON *      SUNNY     88  68  51 S9G16     29.82F HX  91
CLARINDA *     SUNNY     86  63  45 SW7G15    29.85  HX  87
COUNCIL BLFS * SUNNY     86  66  51 S7G15     29.81  HX  88
CRESTON *      MOSUNNY   84  64  51 SW15      29.85  HX  86
HARLAN  *      SUNNY     88  63  42 S9        29.84  HX  88
LAMONI         CLOUDY    80  65  59 SW14      29.86F HX  82
RED OAK *      SUNNY     86  64  48 SW9       29.82  HX  87
SHENANDOAH *   SUNNY     88  61  40 W13       29.83  HX  88
$$

IAZ047>049-059>061-072>074-084-252000-
   CENTRAL IOWA

CITY           SKY/WX    TMP DP  RH WIND       PRES   REMARKS
AMES           MOSUNNY   84  68  58 S10       29.81F HX  87
ANKENY *       CLOUDY    84  70  61 S8        29.82  HX  88
BOONE *        SUNNY     88  66  48 S10       29.80  HX  90
CHARITON *     CLOUDY    81  68  65 SW9G20    29.85F HX  83
DES MOINES     PTSUNNY   84  69  60 S8        29.81F HX  88
GRINNELL*      CLOUDY    83  67  59 S13       29.85F HX  85
KNOXVILLE *    CLOUDY    82  68  61 SW13      29.82  HX  85
MARSHALLTOWN   CLOUDY    83  69  62 S14       29.81F HX  86
NEWTON *       MOSUNNY   84  68  58 SW14      29.82  HX  87
PELLA *        PTSUNNY   82  68  62 S10       29.84F HX  85
PERRY *        FAIR      88  60  38 S9        29.80F HX  87
$$

IAZ004>006-015-016-023>025-035-036-252000-
   NORTH CENTRAL IOWA

CITY           SKY/WX    TMP DP  RH WIND       PRES   REMARKS
ALGONA *       MOSUNNY   86  68  54 W10G21    29.79  HX  89
CLARION *      SUNNY     88  64  45 SW9G18    29.79  HX  89
ESTHERVILLE    SUNNY     84  62  47 CALM      29.79F HX  85
FORT DODGE *   MOSUNNY   88  68  51 SW10      29.79F HX  91
MASON CITY     MOSUNNY   86  66  51 SW9       29.80F HX  88
FOREST CITY *  FAIR      86  66  51 SW8G20    29.79F HX  88
WEBSTER CITY * MOSUNNY   90  63  40 SW9G16    29.77  HX  90
IOWA FALLS *   FAIR      87  63  45 SW12G20   29.82F HX  87
$$

IAZ007>011-017>019-026>030-037>042-050>054-066-252000-
   NORTHEAST IOWA

CITY           SKY/WX    TMP DP  RH WIND       PRES   REMARKS
CEDAR RAPIDS   FAIR      84  66  54 S14G20    29.81F HX  86
CHARLES CITY * FAIR      88  63  42 S10G21    29.80  HX  88
CLINTON *        N/A     73  65  75 E9        29.87S THUNDER
DUBUQUE        FAIR      80  67  64 SW10      29.85F HX  82
MONTICELLO *   FAIR      82  64  54 S9        29.83  HX  84
OELWEIN *      PTSUNNY   86  63  45 SW14G22   29.82  HX  87
WATERLOO       FAIR      85  67  54 S12       29.79F HX  87
$$

IAZ064-065-067-068-078-252000-
   EAST CENTRAL IOWA

CITY           SKY/WX    TMP DP  RH WIND       PRES   REMARKS
DAVENPORT      FAIR      83  62  49 SW12G22   29.87F HX  84
IOWA CITY      FAIR      84  65  52 SW12      29.84F HX  86
MT. PLEASANT * CLOUDY    82  63  51 SW10      29.85F HX  83
MUSCATINE *    FAIR      82  64  54 SW9       29.84F HX  84
QUAD CITIES    PTSUNNY   84  65  52 S5        29.83F HX  86
$$

IAZ062-063-075>077-085>089-095>099-252000-
   SOUTHEAST IOWA

CITY           SKY/WX    TMP DP  RH WIND       PRES   REMARKS
BURLINGTON     CLOUDY    83  68  60 SW6       29.84F HX  86
FAIRFIELD *    CLOUDY    81  66  61 S10G17    29.84  HX  83
FORT MADISON * CLOUDY    82  70  65 W9        29.86  HX  86
KEOKUK *       CLOUDY    81  68  65 W10       29.84  HX  83
OSKALOOSA *    FAIR      83  66  57 S14       29.84  HX  85
CENTERVILLE *  FAIR      82  68  61 SW10G17   29.87  HX  85
OTTUMWA        PTSUNNY   82  67  60 SW12      29.84F HX  84
WASHINGTON *   CLOUDY    82  68  61 S8G14     29.84  HX  85
$$

ABBREVIATIONS USED IN REMARKS
   TC - TEMPERATURES IN CELSIUS
  WCI - WIND CHILL INDEX
   HX - HEAT INDEX
  VSB - VISIBILITY
$$





USA.gov is the U.S. government's official web portal to all federal, state and local government web resources and services.